Regional Weather Roundup
Issued by NWS

Home | Current Version | Previous Version | Graphics & Text | Print | Product List | Glossary On
Versions: 1 2 3 4 5 6 7 8 9 10 11 12 13 14 15 16 17 18 19 20 21 22 23 24 25 26 27 28 29 30 31 32 33 34 35 36 37 38 39 40 41 42 43 44 45 46 47 48 49 50
000
ASUS44 KMEG 051200
RWRTN
TENNESSEE HOURLY STATE WEATHER ROUNDUP
NATIONAL WEATHER SERVICE MEMPHIS TN
700 AM CDT WED AUG 05 2015

TNZ002-004-019-021-049-052-054-088>092-051300-
WEST TENNESSEE

CITY           SKY/WX    TMP DP  RH WIND       PRES   REMARKS
MEMPHIS INTL   MOCLDY    82  71  69 S7        29.96R
NWS MEMPHIS      N/A     79 N/A N/A MISG        N/A
JACKSON        MOCLDY    74  71  91 CALM      29.99R
DYERSBURG        N/A    N/A N/A N/A MISG        N/A
UNION CITY     CLEAR    N/A N/A N/A CALM      29.97F
PARIS          MOSUNNY   75  72  88 CALM      30.00S
LEXINGTON      SUNNY     73  73 100 CALM      29.99S
$$

TNZ008-025-027-028-033-062-065-066-051300-
NORTH MIDDLE TENNESSEE

CITY           SKY/WX    TMP DP  RH WIND       PRES   REMARKS
NASHVILLE      MOSUNNY   77  71  82 E3        30.02R
CLARKSVILLE    CLOUDY    74  70  87 CALM      30.00S
COOKEVILLE     SUNNY     72  72 100 CALM      30.04S
CROSSVILLE     PTSUNNY   71  67  87 CALM      30.10S
$$

TNZ061-075-076-078-094-096-097-051300-
SOUTH MIDDLE TENNESSEE

CITY           SKY/WX    TMP DP  RH WIND       PRES   REMARKS
FAYETTEVILLE     N/A     73  70  88 CALM      30.04R
TULLAHOMA      SUNNY     73  70  88 CALM      30.05S
WINCHESTER     MOSUNNY   73  70  88 CALM      30.04S
MCMINNVILLE    SUNNY     73  73 100 CALM      30.05R
COLUMBIA       SUNNY     75  75 100 CALM      30.00S
SHELBYVILLE    SUNNY     73  73 100 E3        30.03S
$$

TNZ017-018-042-046-047-051300-
NORTHEAST TENNESSEE

CITY           SKY/WX    TMP DP  RH WIND       PRES   REMARKS
TRI CITIES     CLOUDY    66  65  96 CALM      30.10S FOG
ELIZABETHTON   SUNNY     64  63  94 CALM      30.11S
$$

TNZ012-013-036-069-073-074-051300-
CENTRAL EAST TENNESSEE

CITY           SKY/WX    TMP DP  RH WIND       PRES   REMARKS
KNOXVILLE      PTSUNNY   71  66  84 NE3       30.05
OAK RIDGE      MOSUNNY   72  68  87 CALM      30.07R
GATLINBURG     SUNNY     68  64  88 CALM      30.07R
$$

TNZ083-085-099-051300-
SOUTHEAST TENNESSEE

CITY           SKY/WX    TMP DP  RH WIND       PRES   REMARKS
CHATTANOOGA    PTSUNNY   77  71  82 N7        30.03S
$$

SKY/WX REPORTED AS FAIR MEANS FEW OR NO CLOUDS BELOW
12 THOUSAND FEET.




USA.gov is the U.S. government's official web portal to all federal, state and local government web resources and services.